#datetime,building,power
2023-07-18T00:00:00,pth,1.20
2023-07-18T00:02:00,pth,2.40
2023-07-18T00:05:00,pth,2.40
2023-07-18T00:07:00,pth,2.40
2023-07-18T00:09:00,pth,2.40
2023-07-18T00:10:00,pth,1.20
2023-07-18T00:12:00,pth,1.20
2023-07-18T00:13:00,pth,1.20
2023-07-18T00:15:00,pth,2.40
2023-07-18T00:16:00,pth,1.20
2023-07-18T00:17:00,pth,1.20
2023-07-18T00:19:00,pth,2.40
2023-07-18T00:21:00,pth,2.40
2023-07-18T00:23:00,pth,1.20
2023-07-18T00:25:00,pth,2.40
2023-07-18T00:27:00,pth,2.40
2023-07-18T00:29:00,pth,2.40
2023-07-18T00:30:00,pth,1.20
2023-07-18T00:32:00,pth,1.20
2023-07-18T00:34:00,pth,3.60
2023-07-18T00:35:00,pth,1.20
2023-07-18T00:37:00,pth,1.20
2023-07-18T00:39:00,pth,2.40
2023-07-18T00:40:00,pth,1.20
2023-07-18T00:42:00,pth,2.40
2023-07-18T00:44:00,pth,2.40
2023-07-18T00:46:00,pth,2.40
2023-07-18T00:47:00,pth,1.20
2023-07-18T00:49:00,pth,2.40
2023-07-18T00:51:00,pth,1.20
2023-07-18T00:52:00,pth,1.20
2023-07-18T00:53:00,pth,1.20
2023-07-18T00:55:00,pth,2.40
2023-07-18T00:57:00,pth,2.40
2023-07-18T00:58:00,pth,1.20
2023-07-18T01:00:00,pth,2.40
2023-07-18T01:02:00,pth,2.40
2023-07-18T01:05:00,pth,2.40
2023-07-18T01:06:00,pth,1.20
2023-07-18T01:08:00,pth,2.40
2023-07-18T01:09:00,pth,1.20
2023-07-18T01:11:00,pth,1.20
2023-07-18T01:13:00,pth,2.40
2023-07-18T01:14:00,pth,1.20
2023-07-18T01:16:00,pth,2.40
2023-07-18T01:18:00,pth,1.20
2023-07-18T01:20:00,pth,2.40
2023-07-18T01:22:00,pth,2.40
2023-07-18T01:24:00,pth,1.20
2023-07-18T01:26:00,pth,2.40
2023-07-18T01:28:00,pth,2.40
2023-07-18T01:30:00,pth,1.20
2023-07-18T01:32:00,pth,2.40
2023-07-18T01:34:00,pth,2.40
2023-07-18T01:36:00,pth,1.20
2023-07-18T01:38:00,pth,2.40
2023-07-18T01:40:00,pth,1.20
2023-07-18T01:42:00,pth,2.40
2023-07-18T01:43:00,pth,1.20
2023-07-18T01:44:00,pth,1.20
2023-07-18T01:46:00,pth,1.20
2023-07-18T01:48:00,pth,2.40
2023-07-18T01:50:00,pth,2.40
2023-07-18T01:52:00,pth,1.20
2023-07-18T01:54:00,pth,2.40
2023-07-18T01:56:00,pth,2.40
2023-07-18T01:57:00,pth,1.20
2023-07-18T01:59:00,pth,1.20
2023-07-18T02:00:00,pth,1.20
2023-07-18T02:02:00,pth,2.40
2023-07-18T02:03:00,pth,1.20
2023-07-18T02:04:00,pth,1.20
2023-07-18T02:06:00,pth,1.20
2023-07-18T02:07:00,pth,1.20
2023-07-18T02:09:00,pth,2.40
2023-07-18T02:10:00,pth,1.20
2023-07-18T02:12:00,pth,2.40
2023-07-18T02:13:00,pth,1.20
2023-07-18T02:15:00,pth,2.40
2023-07-18T02:17:00,pth,1.20
2023-07-18T02:19:00,pth,2.40
2023-07-18T02:21:00,pth,2.40
2023-07-18T02:22:00,pth,1.20
2023-07-18T02:24:00,pth,2.40
2023-07-18T02:26:00,pth,1.20
2023-07-18T02:27:00,pth,2.40
2023-07-18T02:29:00,pth,1.20
2023-07-18T02:30:00,pth,1.20
2023-07-18T02:32:00,pth,2.40
2023-07-18T02:33:00,pth,1.20
2023-07-18T02:35:00,pth,2.40
2023-07-18T02:37:00,pth,2.40
2023-07-18T02:38:00,pth,1.20
2023-07-18T02:40:00,pth,2.40
2023-07-18T02:41:00,pth,2.40
2023-07-18T02:43:00,pth,2.40
2023-07-18T02:45:00,pth,2.40
2023-07-18T02:47:00,pth,2.40
2023-07-18T02:48:00,pth,2.40
2023-07-18T02:50:00,pth,2.40
2023-07-18T02:52:00,pth,2.40
2023-07-18T02:54:00,pth,2.40
2023-07-18T02:56:00,pth,1.20
2023-07-18T02:58:00,pth,2.40
2023-07-18T02:59:00,pth,1.20
2023-07-18T03:00:00,pth,1.20
2023-07-18T03:01:00,pth,1.20
2023-07-18T03:03:00,pth,1.20
2023-07-18T03:05:00,pth,2.40
2023-07-18T03:06:00,pth,2.40
2023-07-18T03:08:00,pth,1.20
2023-07-18T03:10:00,pth,2.40
2023-07-18T03:12:00,pth,2.40
2023-07-18T03:13:00,pth,1.20
2023-07-18T03:14:00,pth,1.20
2023-07-18T03:16:00,pth,2.40
2023-07-18T03:18:00,pth,1.20
2023-07-18T03:19:00,pth,1.20
2023-07-18T03:21:00,pth,2.40
2023-07-18T03:23:00,pth,2.40
2023-07-18T03:25:00,pth,1.20
2023-07-18T03:26:00,pth,1.20
2023-07-18T03:28:00,pth,2.40
2023-07-18T03:29:00,pth,1.20
2023-07-18T03:31:00,pth,2.40
2023-07-18T03:32:00,pth,1.20
2023-07-18T03:34:00,pth,2.40
2023-07-18T03:36:00,pth,2.40
2023-07-18T03:38:00,pth,1.20
2023-07-18T03:40:00,pth,2.40
2023-07-18T03:41:00,pth,1.20
2023-07-18T03:43:00,pth,2.40
2023-07-18T03:44:00,pth,1.20
2023-07-18T03:46:00,pth,1.20
2023-07-18T03:48:00,pth,2.40
2023-07-18T03:50:00,pth,2.40
2023-07-18T03:51:00,pth,1.20
2023-07-18T03:53:00,pth,2.40
2023-07-18T03:54:00,pth,1.20
2023-07-18T03:56:00,pth,2.40
2023-07-18T03:58:00,pth,2.40
2023-07-18T04:00:00,pth,1.20
2023-07-18T04:02:00,pth,2.40
2023-07-18T04:04:00,pth,2.40
2023-07-18T04:06:00,pth,2.40
2023-07-18T04:08:00,pth,1.20
2023-07-18T04:09:00,pth,1.20
2023-07-18T04:11:00,pth,2.40
2023-07-18T04:13:00,pth,2.40
2023-07-18T04:15:00,pth,2.40
2023-07-18T04:17:00,pth,1.20
2023-07-18T04:18:00,pth,1.20
2023-07-18T04:20:00,pth,2.40
2023-07-18T04:21:00,pth,1.20
2023-07-18T04:23:00,pth,2.40
2023-07-18T04:26:00,pth,2.40
2023-07-18T04:28:00,pth,2.40
2023-07-18T04:29:00,pth,1.20
2023-07-18T04:30:00,pth,1.20
2023-07-18T04:32:00,pth,1.20
2023-07-18T04:33:00,pth,1.20
2023-07-18T04:35:00,pth,1.20
2023-07-18T04:37:00,pth,2.40
2023-07-18T04:38:00,pth,1.20
2023-07-18T04:40:00,pth,1.20
2023-07-18T04:42:00,pth,2.40
2023-07-18T04:45:00,pth,2.40
2023-07-18T04:47:00,pth,2.40
2023-07-18T04:48:00,pth,1.20
2023-07-18T04:50:00,pth,1.20
2023-07-18T04:52:00,pth,2.40
2023-07-18T04:54:00,pth,2.40
2023-07-18T04:56:00,pth,2.40
2023-07-18T04:59:00,pth,2.40
2023-07-18T05:00:00,pth,1.20
2023-07-18T05:02:00,pth,2.40
2023-07-18T05:04:00,pth,1.20
2023-07-18T05:05:00,pth,1.20
2023-07-18T05:07:00,pth,1.20
2023-07-18T05:08:00,pth,1.20
2023-07-18T05:10:00,pth,2.40
2023-07-18T05:12:00,pth,2.40
2023-07-18T05:13:00,pth,1.20
2023-07-18T05:14:00,pth,1.20
2023-07-18T05:16:00,pth,1.20
2023-07-18T05:18:00,pth,2.40
2023-07-18T05:20:00,pth,2.40
2023-07-18T05:21:00,pth,1.20
2023-07-18T05:22:00,pth,1.20
2023-07-18T05:24:00,pth,1.20
2023-07-18T05:26:00,pth,2.40
2023-07-18T05:28:00,pth,2.40
2023-07-18T05:29:00,pth,1.20
2023-07-18T05:31:00,pth,2.40
2023-07-18T05:32:00,pth,1.20
2023-07-18T05:33:00,pth,1.20
2023-07-18T05:35:00,pth,2.40
2023-07-18T05:37:00,pth,2.40
2023-07-18T05:39:00,pth,1.20
2023-07-18T05:41:00,pth,2.40
2023-07-18T05:43:00,pth,2.40
2023-07-18T05:45:00,pth,2.40
2023-07-18T05:48:00,pth,2.40
2023-07-18T05:49:00,pth,1.20
2023-07-18T05:50:00,pth,1.20
2023-07-18T05:52:00,pth,1.20
2023-07-18T05:53:00,pth,1.20
2023-07-18T05:55:00,pth,2.40
2023-07-18T05:57:00,pth,1.20
2023-07-18T05:59:00,pth,2.40
2023-07-18T06:01:00,pth,1.20
2023-07-18T06:03:00,pth,2.40
2023-07-18T06:05:00,pth,1.20
2023-07-18T06:06:00,pth,1.20
2023-07-18T06:07:00,pth,1.20
2023-07-18T06:09:00,pth,2.40
2023-07-18T06:11:00,pth,1.20
2023-07-18T06:13:00,pth,2.40
2023-07-18T06:14:00,pth,1.20
2023-07-18T06:16:00,pth,2.40
2023-07-18T06:17:00,pth,1.20
2023-07-18T06:19:00,pth,1.20
2023-07-18T06:20:00,pth,1.20
2023-07-18T06:22:00,pth,1.20
2023-07-18T06:24:00,pth,2.40
2023-07-18T06:26:00,pth,2.40
2023-07-18T06:29:00,pth,2.40
2023-07-18T06:30:00,pth,1.20
2023-07-18T06:32:00,pth,2.40
2023-07-18T06:33:00,pth,1.20
2023-07-18T06:35:00,pth,1.20
2023-07-18T06:36:00,pth,1.20
2023-07-18T06:38:00,pth,2.40
2023-07-18T06:40:00,pth,2.40
2023-07-18T06:41:00,pth,1.20
2023-07-18T06:43:00,pth,1.20
2023-07-18T06:44:00,pth,1.20
2023-07-18T06:46:00,pth,2.40
2023-07-18T06:47:00,pth,2.40
2023-07-18T06:49:00,pth,1.20
2023-07-18T06:50:00,pth,1.20
2023-07-18T06:53:00,pth,3.60
2023-07-18T06:55:00,pth,2.40
2023-07-18T06:56:00,pth,1.20
2023-07-18T06:58:00,pth,2.40
2023-07-18T07:00:00,pth,1.20
2023-07-18T07:02:00,pth,3.60
2023-07-18T07:03:00,pth,1.20
2023-07-18T07:05:00,pth,2.40
2023-07-18T07:07:00,pth,1.20
2023-07-18T07:09:00,pth,2.40
2023-07-18T07:11:00,pth,2.40
2023-07-18T07:12:00,pth,1.20
2023-07-18T07:14:00,pth,1.20
2023-07-18T07:16:00,pth,2.40
2023-07-18T07:18:00,pth,2.40
2023-07-18T07:19:00,pth,1.20
2023-07-18T07:21:00,pth,2.40
2023-07-18T07:23:00,pth,2.40
2023-07-18T07:25:00,pth,3.60
2023-07-18T07:26:00,pth,1.20
2023-07-18T07:27:00,pth,1.20
2023-07-18T07:29:00,pth,2.40
2023-07-18T07:31:00,pth,1.20
2023-07-18T07:32:00,pth,2.40
2023-07-18T07:34:00,pth,2.40
2023-07-18T07:35:00,pth,1.20
2023-07-18T07:37:00,pth,1.20
2023-07-18T07:38:00,pth,1.20
2023-07-18T07:40:00,pth,2.40
2023-07-18T07:42:00,pth,2.40
2023-07-18T07:44:00,pth,2.40
2023-07-18T07:47:00,pth,2.40
2023-07-18T07:49:00,pth,2.40
2023-07-18T07:50:00,pth,1.20
2023-07-18T07:51:00,pth,1.20
2023-07-18T07:53:00,pth,2.40
2023-07-18T07:55:00,pth,2.40
2023-07-18T07:57:00,pth,2.40
2023-07-18T07:58:00,pth,1.20
2023-07-18T08:00:00,pth,2.40
2023-07-18T08:01:00,pth,1.20
2023-07-18T08:03:00,pth,2.40
2023-07-18T08:05:00,pth,2.40
2023-07-18T08:06:00,pth,1.20
2023-07-18T08:07:00,pth,1.20
2023-07-18T08:09:00,pth,2.40
2023-07-18T08:11:00,pth,2.40
2023-07-18T08:13:00,pth,2.40
2023-07-18T08:15:00,pth,2.40
2023-07-18T08:17:00,pth,2.40
2023-07-18T08:18:00,pth,2.40
2023-07-18T08:20:00,pth,2.40
2023-07-18T08:22:00,pth,2.40
2023-07-18T08:24:00,pth,2.40
2023-07-18T08:26:00,pth,2.40
2023-07-18T08:28:00,pth,1.20
2023-07-18T08:30:00,pth,2.40
2023-07-18T08:31:00,pth,1.20
2023-07-18T08:33:00,pth,2.40
2023-07-18T08:35:00,pth,2.40
2023-07-18T08:37:00,pth,1.20
2023-07-18T08:38:00,pth,2.40
2023-07-18T08:40:00,pth,2.40
2023-07-18T08:42:00,pth,1.20
2023-07-18T08:44:00,pth,2.40
2023-07-18T08:46:00,pth,2.40
2023-07-18T08:47:00,pth,1.20
2023-07-18T08:49:00,pth,2.40
2023-07-18T08:52:00,pth,2.40
2023-07-18T08:54:00,pth,2.40
2023-07-18T08:56:00,pth,2.40
2023-07-18T08:57:00,pth,1.20
2023-07-18T08:59:00,pth,2.40
2023-07-18T09:01:00,pth,2.40
2023-07-18T09:03:00,pth,3.60
2023-07-18T09:05:00,pth,2.40
2023-07-18T09:07:00,pth,2.40
2023-07-18T09:08:00,pth,3.60
2023-07-18T09:10:00,pth,7.20
2023-07-18T09:12:00,pth,6.00
2023-07-18T09:13:00,pth,2.40
2023-07-18T09:14:00,pth,2.40
2023-07-18T09:16:00,pth,3.60
2023-07-18T09:17:00,pth,2.40
2023-07-18T09:19:00,pth,3.60
2023-07-18T09:20:00,pth,2.40
2023-07-18T09:21:00,pth,1.20
2023-07-18T09:23:00,pth,3.60
2023-07-18T09:25:00,pth,3.60
2023-07-18T09:27:00,pth,2.40
2023-07-18T09:28:00,pth,2.40
2023-07-18T09:29:00,pth,1.20
2023-07-18T09:31:00,pth,2.40
2023-07-18T09:33:00,pth,2.40
2023-07-18T09:34:00,pth,2.40
2023-07-18T09:35:00,pth,1.20
2023-07-18T09:37:00,pth,2.40
2023-07-18T09:38:00,pth,1.20
2023-07-18T09:40:00,pth,10.80
2023-07-18T09:42:00,pth,13.20
2023-07-18T09:43:00,pth,7.20
2023-07-18T09:45:00,pth,14.40
2023-07-18T09:47:00,pth,14.40
2023-07-18T09:49:00,pth,14.40
2023-07-18T09:51:00,pth,13.20
2023-07-18T09:53:00,pth,13.20
2023-07-18T09:55:00,pth,14.40
2023-07-18T09:56:00,pth,8.40
2023-07-18T09:57:00,pth,6.00
2023-07-18T09:59:00,pth,4.80
2023-07-18T10:00:00,pth,1.20
2023-07-18T10:02:00,pth,3.60
2023-07-18T10:03:00,pth,2.40
2023-07-18T10:05:00,pth,3.60
2023-07-18T10:07:00,pth,3.60
2023-07-18T10:08:00,pth,7.20
2023-07-18T10:10:00,pth,13.20
2023-07-18T10:11:00,pth,7.20
2023-07-18T10:13:00,pth,13.20
2023-07-18T10:14:00,pth,7.20
2023-07-18T10:16:00,pth,13.20
2023-07-18T10:17:00,pth,7.20
2023-07-18T10:18:00,pth,6.00
2023-07-18T10:20:00,pth,13.20
2023-07-18T10:22:00,pth,9.60
2023-07-18T10:24:00,pth,12.00
2023-07-18T10:25:00,pth,4.80
2023-07-18T10:27:00,pth,9.60
2023-07-18T10:28:00,pth,6.00
2023-07-18T10:30:00,pth,8.40
2023-07-18T10:31:00,pth,6.00
2023-07-18T10:33:00,pth,8.40
2023-07-18T10:35:00,pth,8.40
2023-07-18T10:36:00,pth,4.80
2023-07-18T10:38:00,pth,8.40
2023-07-18T10:39:00,pth,1.20
2023-07-18T10:41:00,pth,8.40
2023-07-18T10:42:00,pth,3.60
2023-07-18T10:43:00,pth,3.60
2023-07-18T10:45:00,pth,8.40
2023-07-18T10:47:00,pth,6.00
2023-07-18T10:49:00,pth,6.00
2023-07-18T10:50:00,pth,3.60
2023-07-18T10:52:00,pth,8.40
2023-07-18T10:54:00,pth,6.00
2023-07-18T10:56:00,pth,6.00
2023-07-18T10:57:00,pth,3.60
2023-07-18T10:59:00,pth,7.20
2023-07-18T11:00:00,pth,1.20
2023-07-18T11:02:00,pth,7.20
2023-07-18T11:03:00,pth,4.80
2023-07-18T11:05:00,pth,4.80
2023-07-18T11:07:00,pth,1.20
2023-07-18T11:08:00,pth,1.20
2023-07-18T11:10:00,pth,2.40
2023-07-18T11:13:00,pth,2.40
2023-07-18T11:15:00,pth,1.20
2023-07-18T11:17:00,pth,2.40
2023-07-18T11:19:00,pth,2.40
2023-07-18T11:20:00,pth,1.20
2023-07-18T11:21:00,pth,1.20
2023-07-18T11:23:00,pth,1.20
2023-07-18T11:25:00,pth,1.20
2023-07-18T11:26:00,pth,1.20
2023-07-18T11:28:00,pth,1.20
2023-07-18T11:29:00,pth,1.20
2023-07-18T11:30:00,pth,1.20
2023-07-18T11:32:00,pth,1.20
2023-07-18T11:33:00,pth,1.20
2023-07-18T11:35:00,pth,1.20
2023-07-18T11:36:00,pth,1.20
2023-07-18T11:38:00,pth,2.40
2023-07-18T11:39:00,pth,1.20
2023-07-18T11:41:00,pth,6.00
2023-07-18T11:42:00,pth,2.40
2023-07-18T11:44:00,pth,7.20
2023-07-18T11:46:00,pth,2.40
2023-07-18T11:47:00,pth,1.20
2023-07-18T11:49:00,pth,1.20
2023-07-18T11:51:00,pth,1.20
2023-07-18T11:52:00,pth,1.20
2023-07-18T11:54:00,pth,1.20
2023-07-18T11:57:00,pth,1.20
2023-07-18T11:59:00,pth,2.40
2023-07-18T12:01:00,pth,1.20
2023-07-18T12:04:00,pth,2.40
2023-07-18T12:07:00,pth,2.40
2023-07-18T12:08:00,pth,1.20
2023-07-18T12:11:00,pth,1.20
2023-07-18T12:12:00,pth,1.20
2023-07-18T12:14:00,pth,1.20
2023-07-18T12:16:00,pth,1.20
2023-07-18T12:17:00,pth,1.20
2023-07-18T12:19:00,pth,1.20
2023-07-18T12:21:00,pth,1.20
2023-07-18T12:23:00,pth,1.20
2023-07-18T12:25:00,pth,1.20
2023-07-18T12:28:00,pth,2.40
2023-07-18T12:31:00,pth,1.20
2023-07-18T12:33:00,pth,1.20
2023-07-18T12:36:00,pth,1.20
2023-07-18T12:38:00,pth,2.40
2023-07-18T12:40:00,pth,1.20
2023-07-18T12:42:00,pth,1.20
2023-07-18T12:45:00,pth,1.20
2023-07-18T12:46:00,pth,1.20
2023-07-18T12:48:00,pth,1.20
2023-07-18T12:50:00,pth,1.20
2023-07-18T12:52:00,pth,1.20
2023-07-18T12:53:00,pth,1.20
2023-07-18T12:55:00,pth,1.20
2023-07-18T12:57:00,pth,1.20
2023-07-18T12:58:00,pth,1.20
2023-07-18T13:00:00,pth,2.40
2023-07-18T13:02:00,pth,1.20
2023-07-18T13:03:00,pth,1.20
2023-07-18T13:05:00,pth,2.40
2023-07-18T13:06:00,pth,1.20
2023-07-18T13:08:00,pth,2.40
2023-07-18T13:11:00,pth,3.60
2023-07-18T13:14:00,pth,2.40
2023-07-18T13:15:00,pth,1.20
2023-07-18T13:17:00,pth,1.20
2023-07-18T13:18:00,pth,1.20
2023-07-18T13:19:00,pth,1.20
2023-07-18T13:21:00,pth,2.40
2023-07-18T13:23:00,pth,2.40
2023-07-18T13:25:00,pth,1.20
2023-07-18T13:27:00,pth,2.40
2023-07-18T13:29:00,pth,2.40
2023-07-18T13:32:00,pth,2.40
2023-07-18T13:33:00,pth,1.20
2023-07-18T13:35:00,pth,1.20
2023-07-18T13:37:00,pth,2.40
2023-07-18T13:39:00,pth,1.20
2023-07-18T13:41:00,pth,1.20
2023-07-18T13:42:00,pth,1.20
2023-07-18T13:43:00,pth,1.20
2023-07-18T13:45:00,pth,1.20
2023-07-18T13:47:00,pth,1.20
2023-07-18T13:48:00,pth,1.20
2023-07-18T13:49:00,pth,1.20
2023-07-18T13:51:00,pth,1.20
2023-07-18T13:54:00,pth,2.40
2023-07-18T13:56:00,pth,1.20
2023-07-18T13:58:00,pth,1.20
2023-07-18T14:00:00,pth,1.20
2023-07-18T14:01:00,pth,1.20
2023-07-18T14:03:00,pth,1.20
2023-07-18T14:05:00,pth,1.20
2023-07-18T14:06:00,pth,1.20
2023-07-18T14:08:00,pth,1.20
2023-07-18T14:09:00,pth,1.20
2023-07-18T14:11:00,pth,1.20
2023-07-18T14:12:00,pth,1.20
2023-07-18T14:14:00,pth,1.20
2023-07-18T14:17:00,pth,2.40
2023-07-18T14:20:00,pth,2.40
2023-07-18T14:22:00,pth,1.20
2023-07-18T14:25:00,pth,2.40
2023-07-18T14:28:00,pth,2.40
2023-07-18T14:30:00,pth,1.20
2023-07-18T14:32:00,pth,1.20
2023-07-18T14:33:00,pth,1.20
2023-07-18T14:34:00,pth,1.20
2023-07-18T14:36:00,pth,1.20
2023-07-18T14:37:00,pth,1.20
2023-07-18T14:39:00,pth,2.40
2023-07-18T14:41:00,pth,1.20
2023-07-18T14:43:00,pth,2.40
2023-07-18T14:45:00,pth,1.20
2023-07-18T14:46:00,pth,1.20
2023-07-18T14:48:00,pth,1.20
2023-07-18T14:49:00,pth,1.20
2023-07-18T14:51:00,pth,2.40
2023-07-18T14:53:00,pth,1.20
2023-07-18T14:54:00,pth,1.20
2023-07-18T14:57:00,pth,2.40
2023-07-18T15:00:00,pth,1.20
2023-07-18T15:01:00,pth,1.20
2023-07-18T15:03:00,pth,1.20
2023-07-18T15:06:00,pth,2.40
2023-07-18T15:08:00,pth,1.20
2023-07-18T15:10:00,pth,1.20
2023-07-18T15:12:00,pth,2.40
2023-07-18T15:14:00,pth,2.40
2023-07-18T15:17:00,pth,2.40
2023-07-18T15:19:00,pth,1.20
2023-07-18T15:20:00,pth,1.20
2023-07-18T15:21:00,pth,1.20
2023-07-18T15:23:00,pth,1.20
2023-07-18T15:24:00,pth,1.20
2023-07-18T15:26:00,pth,1.20
2023-07-18T15:29:00,pth,2.40
2023-07-18T15:32:00,pth,1.20
2023-07-18T15:34:00,pth,1.20
2023-07-18T15:37:00,pth,1.20
2023-07-18T15:40:00,pth,1.20
2023-07-18T15:41:00,pth,1.20
2023-07-18T15:43:00,pth,1.20
2023-07-18T15:47:00,pth,1.20
2023-07-18T15:49:00,pth,1.20
2023-07-18T15:51:00,pth,1.20
2023-07-18T15:53:00,pth,1.20
2023-07-18T15:55:00,pth,1.20
2023-07-18T15:56:00,pth,1.20
2023-07-18T15:58:00,pth,1.20
2023-07-18T16:01:00,pth,1.20
2023-07-18T16:03:00,pth,1.20
2023-07-18T16:04:00,pth,1.20
2023-07-18T16:06:00,pth,1.20
2023-07-18T16:08:00,pth,1.20
2023-07-18T16:09:00,pth,1.20
2023-07-18T16:11:00,pth,1.20
2023-07-18T16:13:00,pth,1.20
2023-07-18T16:15:00,pth,1.20
2023-07-18T16:17:00,pth,1.20
2023-07-18T16:18:00,pth,1.20
2023-07-18T16:20:00,pth,1.20
2023-07-18T16:22:00,pth,1.20
2023-07-18T16:24:00,pth,1.20
2023-07-18T16:26:00,pth,1.20
2023-07-18T16:28:00,pth,1.20
2023-07-18T16:29:00,pth,1.20
2023-07-18T16:31:00,pth,1.20
2023-07-18T16:33:00,pth,1.20
2023-07-18T16:34:00,pth,1.20
2023-07-18T16:36:00,pth,1.20
2023-07-18T16:39:00,pth,1.20
2023-07-18T16:41:00,pth,1.20
2023-07-18T16:43:00,pth,1.20
2023-07-18T16:44:00,pth,1.20
2023-07-18T16:48:00,pth,2.40
2023-07-18T16:51:00,pth,1.20
2023-07-18T16:54:00,pth,1.20
2023-07-18T16:57:00,pth,1.20
2023-07-18T16:58:00,pth,1.20
2023-07-18T17:00:00,pth,1.20
2023-07-18T17:03:00,pth,1.20
2023-07-18T17:05:00,pth,1.20
2023-07-18T17:07:00,pth,1.20
2023-07-18T17:09:00,pth,1.20
2023-07-18T17:12:00,pth,1.20
2023-07-18T17:14:00,pth,1.20
2023-07-18T17:16:00,pth,1.20
2023-07-18T17:18:00,pth,1.20
2023-07-18T17:20:00,pth,1.20
2023-07-18T17:22:00,pth,1.20
2023-07-18T17:25:00,pth,1.20
2023-07-18T17:26:00,pth,1.20
2023-07-18T17:28:00,pth,1.20
2023-07-18T17:30:00,pth,1.20
2023-07-18T17:32:00,pth,1.20
2023-07-18T17:35:00,pth,1.20
2023-07-18T17:36:00,pth,1.20
2023-07-18T17:38:00,pth,1.20
2023-07-18T17:40:00,pth,1.20
2023-07-18T17:41:00,pth,1.20
2023-07-18T17:43:00,pth,1.20
2023-07-18T17:45:00,pth,1.20
2023-07-18T17:47:00,pth,1.20
2023-07-18T17:49:00,pth,1.20
2023-07-18T17:50:00,pth,1.20
2023-07-18T17:52:00,pth,1.20
2023-07-18T17:54:00,pth,1.20
2023-07-18T17:56:00,pth,2.40
2023-07-18T17:59:00,pth,2.40
2023-07-18T18:02:00,pth,2.40
2023-07-18T18:03:00,pth,1.20
2023-07-18T18:06:00,pth,2.40
2023-07-18T18:08:00,pth,1.20
2023-07-18T18:10:00,pth,1.20
2023-07-18T18:12:00,pth,1.20
2023-07-18T18:13:00,pth,1.20
2023-07-18T18:15:00,pth,1.20
2023-07-18T18:18:00,pth,2.40
2023-07-18T18:20:00,pth,1.20
2023-07-18T18:22:00,pth,1.20
2023-07-18T18:24:00,pth,1.20
2023-07-18T18:27:00,pth,1.20
2023-07-18T18:29:00,pth,1.20
2023-07-18T18:31:00,pth,2.40
2023-07-18T18:34:00,pth,1.20
2023-07-18T18:35:00,pth,1.20
2023-07-18T18:37:00,pth,1.20
2023-07-18T18:39:00,pth,1.20
2023-07-18T18:41:00,pth,2.40
2023-07-18T18:43:00,pth,1.20
2023-07-18T18:45:00,pth,1.20
2023-07-18T18:48:00,pth,2.40
2023-07-18T18:49:00,pth,1.20
2023-07-18T18:51:00,pth,1.20
2023-07-18T18:53:00,pth,2.40
2023-07-18T18:55:00,pth,2.40
2023-07-18T18:57:00,pth,1.20
2023-07-18T18:58:00,pth,1.20
2023-07-18T19:00:00,pth,2.40
2023-07-18T19:01:00,pth,1.20
2023-07-18T19:02:00,pth,1.20
2023-07-18T19:04:00,pth,1.20
2023-07-18T19:06:00,pth,2.40
2023-07-18T19:08:00,pth,2.40
2023-07-18T19:10:00,pth,1.20
2023-07-18T19:11:00,pth,1.20
2023-07-18T19:13:00,pth,2.40
2023-07-18T19:15:00,pth,2.40
2023-07-18T19:17:00,pth,2.40
2023-07-18T19:18:00,pth,1.20
2023-07-18T19:20:00,pth,2.40
2023-07-18T19:22:00,pth,2.40
2023-07-18T19:23:00,pth,1.20
2023-07-18T19:25:00,pth,3.60
2023-07-18T19:27:00,pth,2.40
2023-07-18T19:28:00,pth,1.20
2023-07-18T19:30:00,pth,3.60
2023-07-18T19:31:00,pth,1.20
2023-07-18T19:33:00,pth,2.40
2023-07-18T19:34:00,pth,1.20
2023-07-18T19:36:00,pth,2.40
2023-07-18T19:38:00,pth,2.40
2023-07-18T19:40:00,pth,3.60
2023-07-18T19:41:00,pth,1.20
2023-07-18T19:43:00,pth,2.40
2023-07-18T19:45:00,pth,2.40
2023-07-18T19:46:00,pth,1.20
2023-07-18T19:48:00,pth,2.40
2023-07-18T19:50:00,pth,2.40
2023-07-18T19:52:00,pth,2.40
2023-07-18T19:54:00,pth,2.40
2023-07-18T19:55:00,pth,1.20
2023-07-18T19:57:00,pth,1.20
2023-07-18T19:59:00,pth,2.40
2023-07-18T20:01:00,pth,2.40
2023-07-18T20:02:00,pth,1.20
2023-07-18T20:03:00,pth,1.20
2023-07-18T20:05:00,pth,2.40
2023-07-18T20:08:00,pth,3.60
2023-07-18T20:09:00,pth,1.20
2023-07-18T20:11:00,pth,2.40
2023-07-18T20:13:00,pth,2.40
2023-07-18T20:15:00,pth,2.40
2023-07-18T20:16:00,pth,2.40
2023-07-18T20:18:00,pth,3.60
2023-07-18T20:19:00,pth,1.20
2023-07-18T20:20:00,pth,1.20
2023-07-18T20:22:00,pth,4.80
2023-07-18T20:24:00,pth,3.60
2023-07-18T20:26:00,pth,3.60
2023-07-18T20:28:00,pth,3.60
2023-07-18T20:30:00,pth,3.60
2023-07-18T20:32:00,pth,2.40
2023-07-18T20:34:00,pth,3.60
2023-07-18T20:35:00,pth,1.20
2023-07-18T20:37:00,pth,2.40
2023-07-18T20:39:00,pth,3.60
2023-07-18T20:41:00,pth,3.60
2023-07-18T20:42:00,pth,1.20
2023-07-18T20:43:00,pth,1.20
2023-07-18T20:45:00,pth,3.60
2023-07-18T20:47:00,pth,3.60
2023-07-18T20:48:00,pth,1.20
2023-07-18T20:50:00,pth,2.40
2023-07-18T20:52:00,pth,3.60
2023-07-18T20:53:00,pth,1.20
2023-07-18T20:54:00,pth,2.40
2023-07-18T20:56:00,pth,2.40
2023-07-18T20:57:00,pth,1.20
2023-07-18T20:59:00,pth,3.60
2023-07-18T21:00:00,pth,1.20
2023-07-18T21:02:00,pth,2.40
2023-07-18T21:03:00,pth,2.40
2023-07-18T21:05:00,pth,2.40
2023-07-18T21:07:00,pth,3.60
2023-07-18T21:08:00,pth,1.20
2023-07-18T21:09:00,pth,1.20
2023-07-18T21:10:00,pth,1.20
2023-07-18T21:12:00,pth,3.60
2023-07-18T21:13:00,pth,1.20
2023-07-18T21:15:00,pth,3.60
2023-07-18T21:16:00,pth,1.20
2023-07-18T21:18:00,pth,3.60
2023-07-18T21:20:00,pth,2.40
2023-07-18T21:21:00,pth,2.40
2023-07-18T21:23:00,pth,3.60
2023-07-18T21:24:00,pth,1.20
2023-07-18T21:26:00,pth,2.40
2023-07-18T21:27:00,pth,1.20
2023-07-18T21:28:00,pth,2.40
2023-07-18T21:29:00,pth,1.20
2023-07-18T21:31:00,pth,3.60
2023-07-18T21:32:00,pth,1.20
2023-07-18T21:34:00,pth,3.60
2023-07-18T21:35:00,pth,1.20
2023-07-18T21:37:00,pth,3.60
2023-07-18T21:39:00,pth,3.60
2023-07-18T21:40:00,pth,1.20
2023-07-18T21:42:00,pth,3.60
2023-07-18T21:44:00,pth,3.60
2023-07-18T21:45:00,pth,1.20
2023-07-18T21:47:00,pth,3.60
2023-07-18T21:48:00,pth,1.20
2023-07-18T21:50:00,pth,3.60
2023-07-18T21:52:00,pth,2.40
2023-07-18T21:54:00,pth,3.60
2023-07-18T21:55:00,pth,1.20
2023-07-18T21:57:00,pth,3.60
2023-07-18T21:58:00,pth,1.20
2023-07-18T21:59:00,pth,1.20
2023-07-18T22:01:00,pth,3.60
2023-07-18T22:02:00,pth,1.20
2023-07-18T22:03:00,pth,1.20
2023-07-18T22:04:00,pth,1.20
2023-07-18T22:06:00,pth,2.40
2023-07-18T22:08:00,pth,3.60
2023-07-18T22:10:00,pth,3.60
2023-07-18T22:12:00,pth,3.60
2023-07-18T22:14:00,pth,3.60
2023-07-18T22:15:00,pth,1.20
2023-07-18T22:16:00,pth,1.20
2023-07-18T22:17:00,pth,2.40
2023-07-18T22:19:00,pth,3.60
2023-07-18T22:20:00,pth,1.20
2023-07-18T22:22:00,pth,2.40
2023-07-18T22:23:00,pth,2.40
2023-07-18T22:25:00,pth,2.40
2023-07-18T22:26:00,pth,1.20
2023-07-18T22:28:00,pth,2.40
2023-07-18T22:29:00,pth,1.20
2023-07-18T22:31:00,pth,2.40
2023-07-18T22:32:00,pth,1.20
2023-07-18T22:34:00,pth,3.60
2023-07-18T22:36:00,pth,2.40
2023-07-18T22:38:00,pth,2.40
2023-07-18T22:40:00,pth,2.40
2023-07-18T22:41:00,pth,1.20
2023-07-18T22:44:00,pth,2.40
2023-07-18T22:45:00,pth,2.40
2023-07-18T22:47:00,pth,1.20
2023-07-18T22:49:00,pth,2.40
2023-07-18T22:51:00,pth,2.40
2023-07-18T22:53:00,pth,2.40
2023-07-18T22:55:00,pth,1.20
2023-07-18T22:57:00,pth,2.40
2023-07-18T22:58:00,pth,1.20
2023-07-18T22:59:00,pth,1.20
2023-07-18T23:01:00,pth,1.20
2023-07-18T23:03:00,pth,2.40
2023-07-18T23:04:00,pth,1.20
2023-07-18T23:06:00,pth,1.20
2023-07-18T23:08:00,pth,2.40
2023-07-18T23:09:00,pth,1.20
2023-07-18T23:10:00,pth,1.20
2023-07-18T23:12:00,pth,1.20
2023-07-18T23:14:00,pth,2.40
2023-07-18T23:16:00,pth,2.40
2023-07-18T23:18:00,pth,2.40
2023-07-18T23:19:00,pth,1.20
2023-07-18T23:21:00,pth,2.40
2023-07-18T23:22:00,pth,1.20
2023-07-18T23:24:00,pth,2.40
2023-07-18T23:26:00,pth,2.40
2023-07-18T23:29:00,pth,2.40
2023-07-18T23:30:00,pth,1.20
2023-07-18T23:31:00,pth,1.20
2023-07-18T23:33:00,pth,2.40
2023-07-18T23:34:00,pth,1.20
2023-07-18T23:36:00,pth,2.40
2023-07-18T23:37:00,pth,1.20
2023-07-18T23:39:00,pth,2.40
2023-07-18T23:41:00,pth,2.40
2023-07-18T23:43:00,pth,2.40
2023-07-18T23:44:00,pth,1.20
2023-07-18T23:46:00,pth,2.40
2023-07-18T23:48:00,pth,2.40
2023-07-18T23:49:00,pth,1.20
2023-07-18T23:51:00,pth,2.40
2023-07-18T23:53:00,pth,2.40
2023-07-18T23:55:00,pth,2.40
2023-07-18T23:56:00,pth,1.20
2023-07-18T23:58:00,pth,2.40
